FW0864 Weather Reports


Display with metric or nautical units.
time (UTC)temp
F
wind
direction
speed
MPH
gust
MPH
rain 1hr
in
rain 24hr
in
rain mn
in
humidity
%
barometer
mb
20260504002053 74 303 4.0 9.0 0.00 0.00 0.00 47 1007.1
20260504001610 74 336 4.0 9.0 0.00 0.00 0.00 48 1007.1
20260504001053 73 235 2.0 8.0 0.00 0.00 0.00 49 1007.1
20260504000553 72 342 3.0 13.0 0.00 0.00 0.00 50 1007.0
20260504000052 72 316 6.0 13.0 0.00 0.00 0.00 50 1007.0
20260503235552 72 272 7.0 12.0 0.00 0.00 0.00 50 1007.0
20260503235052 73 255 4.0 10.0 0.00 0.00 0.00 49 1007.0
20260503234553 73 338 4.0 13.0 0.00 0.00 0.00 49 1006.9
20260503234052 74 268 4.0 13.0 0.00 0.00 0.00 49 1007.0
20260503233552 74 272 7.0 10.0 0.00 0.00 0.00 47 1007.1
20260503233052 74 304 2.0 9.0 0.00 0.00 0.00 48 1007.2
20260503232556 73 343 2.0 11.0 0.00 0.00 0.00 49 1007.2
20260503232051 73 345 5.0 13.0 0.00 0.00 0.00 48 1007.2
20260503231554 74 279 7.0 13.0 0.00 0.00 0.00 49 1007.2
20260503231052 73 359 4.0 10.0 0.00 0.00 0.00 50 1007.3
20260503230552 73 301 5.0 11.0 0.00 0.00 0.00 49 1007.3
20260503230052 73 9 5.0 15.0 0.00 0.00 0.00 50 1007.3
20260503225551 73 297 7.0 11.0 0.00 0.00 0.00 50 1007.3
20260503225052 74 308 5.0 13.0 0.00 0.00 0.00 49 1007.4
20260503224550 74 9 3.0 13.0 0.00 0.00 0.00 47 1007.4
20260503224051 73 36 1.0 11.0 0.00 0.00 0.00 49 1007.5
20260503223551 73 343 2.0 15.0 0.00 0.00 0.00 50 1007.5
20260503223051 74 10 4.0 15.0 0.00 0.00 0.00 47 1007.5
20260503222554 74 246 8.0 15.0 0.00 0.00 0.00 46 1007.5
20260503222051 75 256 5.0 11.0 0.00 0.00 0.00 44 1007.6
20260503221550 74 272 8.0 11.0 0.00 0.00 0.00 45 1007.7
20260503221052 74 252 5.0 10.0 0.00 0.00 0.00 46 1007.7
20260503220549 73 304 6.0 14.0 0.00 0.00 0.00 46 1007.7
20260503220105 73 266 6.0 14.0 0.00 0.00 0.00 47 1007.7
20260503215548 73 259 4.0 12.0 0.00 0.00 0.00 46 1007.7
20260503215049 73 237 5.0 11.0 0.00 0.00 0.00 47 1007.9
20260503214549 73 301 6.0 13.0 0.00 0.00 0.00 47 1007.9
20260503214050 73 332 7.0 13.0 0.00 0.00 0.00 46 1007.9
20260503213551 73 168 3.0 14.0 0.00 0.00 0.00 46 1007.9
20260503213050 74 264 6.0 14.0 0.00 0.00 0.00 45 1008.0
20260503212549 74 260 6.0 15.0 0.00 0.00 0.00 45 1007.9
20260503212048 73 262 6.0 15.0 0.00 0.00 0.00 46 1007.9
20260503211601 73 277 7.0 17.0 0.00 0.00 0.00 45 1008.1
20260503211052 73 235 10.0 17.0 0.00 0.00 0.00 46 1008.1
20260503210548 74 262 5.0 13.0 0.00 0.00 0.00 45 1008.1
20260503210054 74 262 7.0 13.0 0.00 0.00 0.00 45 1008.1
20260503205547 74 87 3.0 10.0 0.00 0.00 0.00 44 1008.1
20260503205047 74 219 4.0 10.0 0.00 0.00 0.00 46 1008.2
20260503204552 73 233 4.0 15.0 0.00 0.00 0.00 48 1008.2
20260503204044 73 274 8.0 15.0 0.00 0.00 0.00 47 1008.2
20260503203544 72 312 5.0 13.0 0.00 0.00 0.00 48 1008.2
20260503203044 72 222 3.0 13.0 0.00 0.00 0.00 49 1008.3
20260503202544 72 212 5.0 12.0 0.00 0.00 0.00 48 1008.3
20260503202047 72 257 6.0 12.0 0.00 0.00 0.00 50 1008.3
20260503201544 72 147 3.0 9.0 0.00 0.00 0.00 51 1008.3
20260503201043 72 301 3.0 11.0 0.00 0.00 0.00 49 1008.5
20260503200547 73 270 6.0 11.0 0.00 0.00 0.00 50 1008.5
20260503200042 73 343 3.0 8.0 0.00 0.00 0.00 50 1008.4
20260503195541 70 41 1.0 12.0 0.00 0.00 0.00 54 1008.5
20260503195040 70 4 6.0 12.0 0.00 0.00 0.00 52 1008.7
20260503194539 70 327 0.0 11.0 0.00 0.00 0.00 53 1008.6
20260503194040 70 285 2.0 10.0 0.00 0.00 0.00 55 1008.7
20260503193538 69 258 2.0 12.0 0.00 0.00 0.00 53 1008.8
20260503193045 69 245 5.0 12.0 0.00 0.00 0.00 53 1008.9
20260503192537 69 354 6.0 11.0 0.00 0.00 0.00 53 1008.9
20260503192041 69 307 1.0 6.0 0.00 0.00 0.00 55 1009.0
20260503191538 68 295 3.0 10.0 0.00 0.00 0.00 55 1009.0
20260503191037 69 70 5.0 10.0 0.00 0.00 0.00 54 1009.1
20260503190537 69 257 2.0 9.0 0.00 0.00 0.00 54 1009.1
20260503190037 69 4 2.0 9.0 0.00 0.00 0.00 55 1009.1
20260503185535 69 354 1.0 7.0 0.00 0.00 0.00 56 1009.2
20260503185036 68 255 3.0 7.0 0.00 0.00 0.00 56 1009.3
20260503184533 68 260 2.0 9.0 0.00 0.00 0.00 56 1009.3
20260503184032 67 251 3.0 8.0 0.00 0.00 0.00 57 1009.3
20260503183532 67 301 3.0 8.0 0.00 0.00 0.00 58 1009.4
20260503183037 66 43 2.0 12.0 0.00 0.00 0.00 59 1009.5
20260503182529 66 299 6.0 12.0 0.00 0.00 0.00 59 1009.5
20260503182029 66 249 4.0 9.0 0.00 0.00 0.00 59 1009.5
20260503181547 65 264 4.0 9.0 0.00 0.00 0.00 61 1009.4
20260503181028 65 251 5.0 9.0 0.00 0.00 0.00 60 1009.6
20260503180530 65 291 3.0 8.0 0.00 0.00 0.00 60 1009.6
20260503180025 65 270 3.0 13.0 0.00 0.00 0.00 62 1009.6
20260503175523 64 285 4.0 13.0 0.00 0.00 0.00 62 1009.6
20260503175023 64 337 4.0 9.0 0.00 0.00 0.00 62 1009.6
20260503174522 64 328 3.0 10.0 0.00 0.00 0.00 64 1009.6
20260503174022 64 289 4.0 10.0 0.00 0.00 0.00 63 1009.6
20260503173624 64 251 4.0 10.0 0.00 0.00 0.00 63 1009.6
20260503173039 63 222 5.0 10.0 0.00 0.00 0.00 64 1009.5
20260503172518 63 324 2.0 10.0 0.00 0.00 0.00 66 1009.4
20260503172022 62 264 4.0 10.0 0.00 0.00 0.00 65 1009.3
20260503171518 62 317 4.0 8.0 0.00 0.00 0.00 65 1009.4
20260503171016 62 270 2.0 8.0 0.00 0.00 0.00 68 1009.5
20260503170519 62 345 2.0 8.0 0.00 0.00 0.00 68 1009.4
20260503150552 56 10 3.0 11.0 0.00 0.00 0.00 83 1008.9
20260503131028 54 262 3.0 5.0 0.00 0.00 0.00 85 1007.2
20260503130528 54 319 2.0 8.0 0.00 0.00 0.00 85 1007.1
20260503110517 55 327 3.0 8.0 0.00 0.00 0.00 83 1006.4
20260503090511 57 315 4.0 8.0 0.00 0.00 0.00 79 1006.3
20260503081505 57 275 5.0 11.0 0.00 0.00 0.00 78 1006.7
20260503081001 57 337 5.0 11.0 0.00 0.00 0.00 78 1006.7
20260503080602 57 278 3.0 11.0 0.00 0.00 0.00 78 1006.7
20260503080501 58 302 4.0 11.0 0.00 0.00 0.00 78 1006.7
20260503072554 58 359 5.0 11.0 0.00 0.00 0.00 76 1006.7
20260503072054 58 315 6.0 15.0 0.00 0.00 0.00 76 1006.8
20260503071558 59 323 5.0 10.0 0.00 0.00 0.00 76 1006.8
20260503071055 59 333 3.0 8.0 0.00 0.00 0.00 76 1006.7
20260503070550 59 264 5.0 12.0 0.00 0.00 0.00 75 1006.7
20260503060110 62 316 4.0 12.0 0.00 0.00 0.00 72 1006.8
20260503055048 62 295 6.0 16.0 0.00 0.00 0.00 71 1006.8
20260503054547 62 255 9.0 16.0 0.00 0.00 0.00 70 1006.8
20260503054046 62 322 7.0 15.0 0.00 0.00 0.00 70 1006.8
20260503053546 63 340 5.0 15.0 0.00 0.00 0.00 69 1006.9
20260503053047 63 287 7.0 12.0 0.00 0.00 0.00 69 1006.9
20260503052545 63 359 6.0 12.0 0.00 0.00 0.00 68 1006.9
20260503052046 63 312 5.0 14.0 0.00 0.00 0.00 68 1006.8
20260503051548 64 278 6.0 14.0 0.00 0.00 0.00 68 1006.9
20260503051045 64 4 6.0 13.0 0.00 0.00 0.00 67 1006.8
20260503050545 64 303 8.0 13.0 0.00 0.00 0.00 67 1006.6
20260503050045 65 298 3.0 10.0 0.00 0.00 0.00 67 1006.6
20260503045544 65 296 6.0 12.0 0.00 0.00 0.00 67 1006.5
20260503045044 65 275 5.0 12.0 0.00 0.00 0.00 67 1006.6
20260503044611 65 297 4.0 12.0 0.00 0.00 0.00 68 1006.4
20260503044044 66 347 5.0 12.0 0.00 0.00 0.00 68 1006.3
20260503043544 66 276 4.0 11.0 0.00 0.00 0.00 69 1006.2
20260503043044 66 336 4.0 12.0 0.00 0.00 0.00 69 1006.1
20260503042546 66 333 5.0 12.0 0.00 0.00 0.00 69 1006.1
20260503042046 66 330 5.0 11.0 0.00 0.00 0.00 70 1006.1
20260503041545 67 287 6.0 12.0 0.00 0.00 0.00 70 1006.0
20260503041044 67 328 4.0 10.0 0.00 0.00 0.00 70 1005.9
20260503040543 67 303 4.0 8.0 0.00 0.00 0.00 70 1005.9
20260503040043 68 343 3.0 10.0 0.00 0.00 0.00 69 1005.9
20260503035547 68 298 4.0 9.0 0.00 0.00 0.00 69 1005.8
20260503035044 68 310 3.0 9.0 0.00 0.00 0.00 68 1005.8
20260503034543 68 345 2.0 8.0 0.00 0.00 0.00 67 1005.8
20260503034042 68 339 3.0 10.0 0.00 0.00 0.00 67 1005.7
20260503033543 69 320 3.0 10.0 0.00 0.00 0.00 67 1005.7
20260503033042 69 318 3.0 10.0 0.00 0.00 0.00 66 1005.5
20260503032542 69 198 4.0 10.0 0.00 0.00 0.00 66 1005.5
20260503032042 69 341 4.0 9.0 0.00 0.00 0.00 65 1005.5
20260503031542 69 332 3.0 12.0 0.00 0.00 0.00 65 1005.4
20260503031042 69 350 6.0 13.0 0.00 0.00 0.00 64 1005.3
20260503030542 69 329 4.0 14.0 0.00 0.00 0.00 64 1005.4
20260503030043 70 306 2.0 10.0 0.00 0.00 0.00 63 1005.3
20260503025541 70 318 6.0 10.0 0.00 0.00 0.00 63 1005.2
20260503025044 70 329 4.0 10.0 0.00 0.00 0.00 63 1005.2
20260503024541 70 337 5.0 11.0 0.00 0.00 0.00 63 1005.1
20260503024041 71 354 5.0 14.0 0.00 0.00 0.00 63 1005.1
20260503023540 71 337 7.0 14.0 0.00 0.00 0.00 63 1005.1
20260503023042 71 344 5.0 12.0 0.00 0.00 0.00 64 1005.1
20260503022540 72 340 4.0 12.0 0.00 0.00 0.00 63 1005.1
20260503022040 72 305 6.0 13.0 0.00 0.00 0.00 62 1005.2
20260503021540 72 301 6.0 14.0 0.00 0.00 0.00 61 1005.1
20260503021040 73 10 7.0 14.0 0.00 0.00 0.00 60 1005.1
20260503020540 73 338 6.0 13.0 0.00 0.00 0.00 59 1005.1
20260503020040 74 339 4.0 14.0 0.00 0.00 0.00 57 1005.1
20260503015540 75 330 4.0 12.0 0.00 0.00 0.00 56 1005.1
20260503015039 75 337 4.0 10.0 0.00 0.00 0.00 56 1005.1
20260503014549 75 320 4.0 13.0 0.00 0.00 0.00 55 1005.1
20260503014039 76 331 3.0 13.0 0.00 0.00 0.00 54 1005.1
20260503013541 76 359 5.0 13.0 0.00 0.00 0.00 53 1005.1
20260503013041 77 341 8.0 13.0 0.00 0.00 0.00 51 1005.1
20260503012541 78 347 4.0 10.0 0.00 0.00 0.00 50 1005.1
20260503012038 78 332 4.0 10.0 0.00 0.00 0.00 50 1005.0
20260503011538 78 273 6.0 12.0 0.00 0.00 0.00 49 1005.1
20260503011038 78 333 5.0 12.0 0.00 0.00 0.00 49 1005.0
20260503010538 78 333 4.0 14.0 0.00 0.00 0.00 50 1005.1
20260503010039 79 345 6.0 14.0 0.00 0.00 0.00 49 1005.0
20260503005537 79 312 3.0 14.0 0.00 0.00 0.00 50 1005.1
20260503005041 79 259 3.0 14.0 0.00 0.00 0.00 50 1005.0
20260503004538 79 345 6.0 15.0 0.00 0.00 0.00 49 1005.0
20260503004038 79 347 8.0 15.0 0.00 0.00 0.00 49 1005.1
20260503003538 80 317 4.0 15.0 0.00 0.00 0.00 49 1005.1
20260503003046 80 314 5.0 12.0 0.00 0.00 0.00 48 1005.1